Meteo Giornale » Osservazioni meteo Olanda » Vlieland
ore: 14:55 - Osservazioni Meteo Vlieland
Lat. 53° 15' N Lon. 4° 55' E Alt. 11 metri s.l.m.
19 °C
Poco Nuvoloso
Temp. 24 Ore
17 °C
20 °C
Ovest
31.5 Km/h
Dew point 13 °C
Umidità 68 %
Visibilità 10 Km
Il sole sorge alle ore 06:50
Il sole tramonta alle ore 20:30
| Data e Ora | Cielo e Fenomeni | T °C | DP °C | Um. % | Pres. hPa | Vis. km | Vento km/h | |
|---|---|---|---|---|---|---|---|---|
| Oggi h: 14:55 | Poco Nuvoloso | 19 | 13 | 68 | 1018 | 10 | O 31.5 | |
| Oggi h: 14:25 | Poco Nuvoloso | 20 | 13 | 64 | 1018 | 10 | O 31.5 | |
| Oggi h: 13:55 | Nuvoloso | 19 | 13 | 68 | 1018 | 10 | O 31.5 | |
| Oggi h: 13:25 | Nuvoloso | 20 | 12 | 59 | 1018 | 10 | O 31.5 | |
| Oggi h: 12:55 | Nuvoloso | 19 | 13 | 68 | 1018 | 10 | O 29.6 | |
| Oggi h: 12:25 | Molto Nuvoloso | 19 | 12 | 63 | 1018 | 10 | O 31.5 | |
| Oggi h: 11:55 | Molto Nuvoloso | 19 | 12 | 63 | 1018 | 10 | O 33.3 | |
| Oggi h: 11:25 | Poco Nuvoloso | 19 | 12 | 63 | 1017 | 10 | O 33.3 | |
| Oggi h: 10:55 | Molto Nuvoloso | 18 | 12 | 67 | 1017 | 10 | O 37 | |
| Oggi h: 10:25 | Coperto | 18 | 13 | 72 | 1017 | 10 | O 35.2 | |
| Oggi h: 09:55 | Coperto | 18 | 13 | 72 | 1017 | 10 | O 37 | |
| Oggi h: 09:25 | Coperto | 17 | 12 | 72 | 1016 | 10 | O 33.3 | |
| Oggi h: 08:55 | Coperto | 17 | 12 | 72 | 1016 | 10 | O 35.2 | |
| Oggi h: 08:25 | Coperto | 17 | 13 | 77 | 1016 | 10 | O 37 | |
| Oggi h: 07:55 | Coperto | 17 | 13 | 77 | 1015 | 10 | O 37 | |
| Oggi h: 07:25 | Molto Nuvoloso | 17 | 14 | 82 | 1015 | 10 | O 37 | |
| Oggi h: 06:55 | Coperto | 18 | 14 | 77 | 1015 | 10 | O 35.2 | |
| Oggi h: 06:25 | Coperto | 18 | 15 | 82 | 1015 | 10 | O 29.6 | |
| Oggi h: 05:55 | Molto Nuvoloso | 18 | 15 | 82 | 1015 | 10 | O 31.5 | |
| Oggi h: 05:25 | Molto Nuvoloso | 18 | 15 | 82 | 1015 | 10 | O 33.3 | |
| Oggi h: 04:55 | Molto Nuvoloso | 18 | 15 | 82 | 1015 | 10 | O 29.6 | |
| Oggi h: 04:25 | Molto Nuvoloso | 18 | 16 | 88 | 1014 | 10 | O 25.9 | |
| Oggi h: 03:55 | Molto Nuvoloso | 18 | 15 | 82 | 1014 | 10 | O 29.6 | |
| Oggi h: 03:25 | Poco Nuvoloso | 18 | 16 | 88 | 1014 | 10 | O 31.5 | |
| Oggi h: 02:55 | Poco Nuvoloso | 18 | 16 | 88 | 1014 | 10 | O 31.5 | |
| Oggi h: 02:25 | Coperto | 18 | 16 | 88 | 1014 | 10 | O 29.6 | |
| Oggi h: 01:25 | Coperto | 19 | 16 | 82 | 1014 | 10 | O 31.5 | |
| Oggi h: 00:55 | Coperto | 19 | 16 | 82 | 1014 | 10 | O 31.5 | |
| Oggi h: 00:25 | Molto Nuvoloso | 19 | 15 | 77 | 1014 | 10 | O 31.5 | |
| Ieri h: 23:55 | Molto Nuvoloso | 18 | 16 | 88 | 1014 | 10 | O 33.3 | |
| Ieri h: 23:25 | Molto Nuvoloso | 18 | 16 | 88 | 1013 | 10 | O/NO 37 | |
| Ieri h: 22:55 | Molto Nuvoloso | 18 | 16 | 88 | 1013 | 10 | O 35.2 | |
| Ieri h: 22:25 | Poco Nuvoloso | 18 | 15 | 82 | 1013 | 10 | O 37 | |
| Ieri h: 21:55 | Poco Nuvoloso | 18 | 15 | 82 | 1012 | 10 | O 37 | |
| Ieri h: 21:25 | Molto Nuvoloso | 18 | 15 | 82 | 1012 | 10 | O/NO 38.8 | |
| Ieri h: 20:55 | Molto Nuvoloso | 18 | 15 | 82 | 1012 | 10 | O/NO 38.8 | |
| Ieri h: 20:25 | Molto Nuvoloso | 18 | 15 | 82 | 1011 | 10 | O/NO 42.6 | |
| Ieri h: 19:55 | Molto Nuvoloso | 18 | 16 | 88 | 1011 | 10 | O 42.6 | |
| Ieri h: 19:25 | Molto Nuvoloso | 18 | 16 | 88 | 1010 | 10 | O/NO 40.7 | |
| Ieri h: 18:55 | Molto Nuvoloso | 19 | 15 | 77 | 1010 | 10 | O 42.6 | |
| Ieri h: 18:25 | Molto Nuvoloso | 19 | 15 | 77 | 1009 | 10 | O/NO 42.6 | |
| Ieri h: 17:55 | Molto Nuvoloso | 19 | 16 | 82 | 1009 | 10 | O 42.6 | |
| Ieri h: 17:25 | Molto Nuvoloso | 19 | 15 | 77 | 1008 | 10 | O 42.6 | |
| Ieri h: 16:55 | Molto Nuvoloso | 18 | 16 | 88 | 1008 | 10 | O 48.1 | |
| Ieri h: 16:25 | Coperto | 18 | 16 | 88 | 1008 | 10 | O/SO 37 | |
| Ieri h: 15:55 | Molto Nuvoloso | 18 | 15 | 82 | 1007 | 10 | O/SO 33.3 | |



